星链-35887(STARLINK-35887)

导读

STARLINK-35887是美国于2025年12月8日发射的Starlink卫星,属于SpaceX星链互联网卫星星座的一员。该卫星旨在为全球范围内用户提供低延迟、高速率的宽带互联网服务,尤其覆盖偏远地区与网络基础设施薄弱区域,进一步扩充了星链星座的在轨规模与服务能力。

基本信息
目录编号:
66959
目录名称:
STARLINK-35887
国际标识:
2025-288A
轨道中心:
EARTH
卫星名称:
星链-35887
卫星全名:
星链-35887(STARLINK-35887)
卫星状态:
在轨 (已飞行270 天)
发射日期:
2025-12-08 UTC
国别 :
美国 (US)
星等 :
--
轨道信息
数据来源 国际轨道数据
星历时间: 2026-09-04T07:10:17+0800
13小时前
查看轨道信息
半长轴: 6861.151km
偏心率: 0.0001551
轨道倾角: 43.003°
近地点辐角 261.897°
升交点赤经 96.544°
平近点角 98.171°
近地点: 481.949km
远地点: 484.079km
周期: 94.266分钟
每日圈数: 15.275919
详细信息
固有亮度:
5
最大亮度:
2.5
卫星平台:
Starlink V1.0
覆盖范围:
全球
运营商:
太空探索技术公司
运营商所在国:
美国
制造商(研发单位):
太空探索技术公司
制造商所在国:
美国
使用方式:
暂无
卫星简介
Starlink 计划是 SpaceX 推出的全球卫星互联网项目,通过发射低轨道卫星,为全球尤其是偏远地区提供高速、低延迟的互联网服务。自 2019 年起,Starlink 已部署数千颗卫星,旨在缩小全球数字鸿沟,推动互联网普及。该项目还为军事、航空等行业提供通信支持,带来广泛经济效益。
2D轨道图
3D轨道图
轨道高度分析图
轨道倾角分析图
轨道综合分析图
查看轨道综合分析图
交会数据列表
事件ID 空间交会对象 最接近时刻(TCA) 交会距离 交会风险概率(CRP) 交会风险指数(CRI) 操作
CDM_260906-101405-787906-695921
2026-09-06T
10:14:01+0000
0.260 km
中距离
4.759702E-4 高风险 0.89
CDM_260906-102006-695906-840521
2026-09-06T
10:20:22+0000
0.851 km
远距离
4.220728E-5 中风险 0.68
CDM_260905-232405-957406-695921
2026-09-05T
23:24:09+0000
0.566 km
远距离
3.56713E-5 中风险 0.66
CDM_260904-180504-014306-695922
2026-09-04T
18:05:00+0000
1.053 km
极远距离
2.212256E-5 中风险 0.62
CDM_260906-014505-957406-695921
2026-09-06T
01:45:23+0000
0.930 km
远距离
7.030378E-6 低风险 0.52
CDM_260903-105905-957406-695921
2026-09-03T
10:59:10+0000
1.059 km
极远距离
4.513342E-6 低风险 0.48
CDM_260903-101205-957406-695922
2026-09-03T
10:12:06+0000
1.084 km
极远距离
4.167234E-6 低风险 0.47
CDM_260906-083905-787906-695921
2026-09-06T
08:39:51+0000
1.531 km
极远距离
4.105515E-6 低风险 0.47
CDM_260906-031905-957406-695921
2026-09-06T
03:19:32+0000
1.186 km
极远距离
3.091514E-6 低风险 0.45
CDM_260906-114805-787906-695921
2026-09-06T
11:48:10+0000
1.848 km
极远距离
2.362651E-6 低风险 0.42